Weather Roundup
Issued by NWS Chicago, IL

Home | Current Version | Previous Version | Graphics & Text | Print | Product List | Glossary On
Versions: 1 2 3 4 5 6 7 8 9 10 11 12 13 14 15 16 17 18 19 20 21 22 23 24 25 26 27 28 29 30 31 32 33 34 35 36 37 38 39 40 41 42 43 44 45 46 47 48 49 50
000
NZUS59 KLOT 260503
HRRLOT

CHICAGO AREA WEATHER ROUNDUP
NATIONAL WEATHER SERVICE CHICAGO/ROMEOVILLE IL
1200 AM CDT TUE JUL 26 2016

NOTE: "FAIR" INDICATES FEW OR NO CLOUDS BELOW 12,000 FEET WITH NO
SIGNIFICANT WEATHER AND/OR OBSTRUCTIONS TO VISIBILITY.

* THESE STATIONS ARE NOT UNDER NWS QUALITY CONTROL. THEY ALSO MAY NOT
  REPORT WEATHER SUCH AS PRECIPITATION OR FOG.

ILZ005-006-012>014-019>023-260600-
NORTHEAST ILLINOIS

CITY           SKY/WX    TMP DP  RH WIND       PRES   REMARKS
OHARE          CLOUDY    74  65  73 CALM      30.02S
MIDWAY         CLOUDY    78  61  55 E5        30.02R HX  80
AURORA         CLOUDY    70  68  93 NW3       30.03S
LANSING*       CLOUDY    73  65  76 CALM      30.02S
WAUKEGAN       CLEAR     67  63  87 CALM      30.02S
DUPAGE AIRPORT CLOUDY    72  64  76 N3        30.03R
WHEELING       PTCLDY    73  65  75 CALM      30.03S
KANKAKEE*      PTCLDY    71  69  95 CALM      30.04R
MORRIS*        PTCLDY    70  68  93 CALM      30.01S
NORTHERLY ISL    N/A     72  65  78 CALM        N/A
$$

WIZ051-052-058>065-066-070>072-260600-
SOUTHEAST WISCONSIN

CITY           SKY/WX    TMP DP  RH WIND       PRES   REMARKS
MILWAUKEE      PTCLDY    75  64  68 SW3       30.03R
KENOSHA*       CLEAR     67  62  84 CALM      30.03S
RACINE*        CLEAR     72  61  68 W5        30.04R
BURLINGTON     CLEAR     65  64  97 CALM      30.04R
WAUKESHA       CLEAR     68  63  83 W3        30.05R
$$

INZ001>003-010>013-019-020-260600-
NORTHWEST INDIANA

CITY           SKY/WX    TMP DP  RH WIND       PRES   REMARKS
GARY*          CLOUDY    71  71  99 CALM      30.03S
MICHIGAN CITY* NOT AVBL
RENSSELAER*    NOT AVBL
VALPARAISO     CLOUDY    68  65  90 NE3       30.04S
$$

LMZ740>746-260600-
SOUTHERN LAKE MICHIGAN

STATION/POSITION TIME  SKY/WX   TEMP WIND        PRES    VSBY
                                AIR  DIR/SP/G
                 (UTC)          (F)  (DEG/KT/KT) (MB)    (MI)
HARRISON CRIB    0400            75  130/  1/  2   N/A
BURNHAM HARBOR   0500            72   CALM  /  1   N/A
CALUMET HARBOR   0400            75   90/  4/  5 1016.0
BURNS HARBOR     0400            78   90/  5/  6 1016.9S
MICHIGAN CITY    0400            75  140/  3/  3   N/A
$$

ABBREVIATIONS USED IN REMARKS
   TC - TEMPERATURE IN CELSIUS
  WCI - WIND CHILL INDEX
   HX - HEAT INDEX
  VSB - VISIBILITY
$$




USA.gov is the U.S. government's official web portal to all federal, state and local government web resources and services.